EW7082 Weather Reports


Display with metric or nautical units.
time (UTC)temp
F
wind
direction
speed
MPH
gust
MPH
rain 1hr
in
rain 24hr
in
rain mn
in
humidity
%
barometer
mb
20260902110204 56 77 0.0 2.0 0.00 0.00 0.00 94 1006.1
20260902105705 56 73 1.0 2.0 0.00 0.00 0.00 94 1006.2
20260902104204 56 80 1.0 1.0 0.00 0.00 0.00 94 1006.2
20260902103704 56 80 0.0 1.0 0.00 0.00 0.00 94 1006.3
20260902103205 56 80 0.0 1.0 0.00 0.00 0.00 94 1006.3
20260902102705 56 80 0.0 0.0 0.00 0.00 0.00 94 1006.5
20260902102204 56 80 0.0 0.0 0.00 0.00 0.00 94 1006.5
20260902101706 56 80 0.0 0.0 0.00 0.00 0.00 94 1006.7
20260902100705 56 80 1.0 2.0 0.00 0.00 0.00 94 1006.7
20260902100204 56 264 0.0 2.0 0.00 0.00 0.00 94 1006.7
20260902095704 56 264 1.0 2.0 0.00 0.00 0.00 94 1006.7
20260902095204 55 264 0.0 1.0 0.00 0.00 0.00 94 1006.7
20260902094705 55 264 1.0 2.0 0.00 0.00 0.00 94 1006.8
20260902094204 55 232 1.0 2.0 0.00 0.00 0.00 94 1006.8
20260902093704 55 232 0.0 1.0 0.00 0.00 0.00 94 1006.9
20260902093205 55 232 2.0 3.0 0.00 0.00 0.00 94 1007.0
20260902092704 56 213 0.0 1.0 0.00 0.00 0.00 94 1007.0
20260902092204 55 213 0.0 0.0 0.00 0.00 0.00 94 1007.0
20260902091204 55 302 1.0 2.0 0.00 0.00 0.00 93 1007.2
20260902090704 55 302 1.0 2.0 0.00 0.00 0.00 93 1007.2
20260902090206 55 295 1.0 2.0 0.00 0.00 0.00 94 1007.3
20260902085703 55 51 2.0 3.0 0.00 0.00 0.00 93 1007.3
20260902085205 55 202 1.0 3.0 0.00 0.00 0.00 93 1007.3
20260902084705 55 202 1.0 3.0 0.00 0.00 0.00 92 1007.4
20260902084205 56 202 0.0 1.0 0.00 0.00 0.00 92 1007.3
20260902083704 56 202 0.0 1.0 0.00 0.00 0.00 92 1007.4
20260902083205 56 202 1.0 2.0 0.00 0.00 0.00 92 1007.6
20260902082705 56 202 0.0 1.0 0.00 0.00 0.00 92 1007.6
20260902082204 56 202 1.0 2.0 0.00 0.00 0.00 92 1007.7
20260902081705 57 202 0.0 2.0 0.00 0.00 0.00 92 1007.5
20260902081205 57 202 0.0 0.0 0.00 0.00 0.00 92 1007.5
20260902080704 57 202 0.0 0.0 0.00 0.00 0.00 92 1007.5
20260902080205 57 202 0.0 2.0 0.00 0.00 0.00 91 1007.6
20260902075703 57 202 0.0 1.0 0.00 0.00 0.00 91 1007.7
20260902075204 57 202 2.0 3.0 0.00 0.00 0.00 90 1007.8
20260902074704 58 51 0.0 0.0 0.00 0.00 0.00 90 1007.8
20260902074204 58 51 0.0 2.0 0.00 0.00 0.00 91 1007.8
20260902073705 59 51 0.0 2.0 0.00 0.00 0.00 90 1007.8
20260902073204 59 51 0.0 0.0 0.00 0.00 0.00 90 1007.8
20260902072704 59 51 0.0 0.0 0.00 0.00 0.00 90 1007.9
20260902072204 59 51 0.0 1.0 0.00 0.00 0.00 89 1008.1
20260902071704 60 51 1.0 2.0 0.00 0.00 0.00 89 1008.0
20260902071205 60 51 0.0 1.0 0.00 0.00 0.00 89 1007.9
20260902070704 60 51 0.0 0.0 0.00 0.00 0.00 89 1008.0
20260902070205 60 51 0.0 0.0 0.00 0.00 0.00 89 1008.0
20260902065704 60 51 0.0 0.0 0.00 0.00 0.00 89 1008.0
20260902065204 61 51 0.0 0.0 0.00 0.00 0.00 88 1008.1
20260902064705 61 51 0.0 0.0 0.00 0.00 0.00 88 1008.1
20260902064204 61 51 0.0 0.0 0.00 0.00 0.00 88 1008.1
20260902063703 61 51 0.0 1.0 0.00 0.00 0.00 88 1008.2
20260902062705 61 51 0.0 0.0 0.00 0.00 0.00 87 1008.3
20260902061705 61 51 0.0 0.0 0.00 0.00 0.00 87 1008.3
20260902061203 61 51 0.0 2.0 0.00 0.00 0.00 87 1008.2
20260902060204 61 41 1.0 3.0 0.00 0.00 0.00 87 1008.4
20260902055204 62 302 0.0 0.0 0.00 0.00 0.00 87 1008.5
20260902054705 62 302 0.0 0.0 0.00 0.00 0.00 87 1008.5
20260902054205 62 302 0.0 0.0 0.00 0.00 0.00 87 1008.7
20260902053704 62 302 0.0 0.0 0.00 0.00 0.00 87 1008.6
20260902053206 62 302 0.0 0.0 0.00 0.00 0.00 86 1008.6
20260902052205 62 302 0.0 0.0 0.00 0.00 0.00 87 1008.8
20260902051704 62 302 0.0 0.0 0.00 0.00 0.00 87 1008.8
20260902051204 62 302 0.0 0.0 0.00 0.00 0.00 87 1008.8
20260902050704 62 302 0.0 0.0 0.00 0.00 0.00 87 1008.8
20260902050204 62 302 0.0 0.0 0.00 0.00 0.00 87 1008.9
20260902045704 62 302 0.0 1.0 0.00 0.00 0.00 87 1008.8
20260902045204 62 302 0.0 0.0 0.00 0.00 0.00 87 1008.8
20260902044705 62 302 0.0 0.0 0.00 0.00 0.00 87 1008.9
20260902044204 62 302 0.0 0.0 0.00 0.00 0.00 87 1008.9
20260902043205 62 302 0.0 0.0 0.00 0.00 0.00 87 1009.0
20260902042704 62 302 0.0 0.0 0.00 0.00 0.00 87 1009.0
20260902042204 62 302 0.0 2.0 0.00 0.00 0.00 87 1009.1
20260902041704 62 302 1.0 2.0 0.00 0.00 0.00 86 1009.1
20260902041204 62 302 0.0 2.0 0.00 0.00 0.00 86 1009.0
20260902040204 63 302 0.0 0.0 0.00 0.00 0.00 86 1009.0
20260902035705 63 302 0.0 0.0 0.00 0.00 0.00 86 1008.9
20260902035204 63 302 0.0 0.0 0.00 0.00 0.00 85 1008.9
20260902034705 63 302 0.0 0.0 0.00 0.00 0.00 85 1008.9
20260902034205 63 302 0.0 0.0 0.00 0.00 0.00 85 1008.9
20260902033704 63 302 0.0 0.0 0.00 0.00 0.00 85 1008.8
20260902033204 63 302 0.0 0.0 0.00 0.00 0.00 84 1008.8
20260902032704 63 302 0.0 0.0 0.00 0.00 0.00 83 1008.8
20260902032205 63 302 0.0 0.0 0.00 0.00 0.00 83 1008.8
20260902031705 64 302 0.0 0.0 0.00 0.00 0.00 83 1008.7
20260902030705 64 302 0.0 0.0 0.00 0.00 0.00 83 1008.9
20260902030205 64 302 0.0 0.0 0.00 0.00 0.00 82 1008.9
20260902025704 64 302 0.0 0.0 0.00 0.00 0.00 82 1008.9
20260902025204 64 302 0.0 0.0 0.00 0.00 0.00 82 1008.9
20260902024706 64 302 0.0 0.0 0.00 0.00 0.00 82 1008.9
20260902024205 64 302 0.0 0.0 0.00 0.00 0.00 81 1009.0
20260902023704 64 302 0.0 0.0 0.00 0.00 0.00 81 1009.0
20260902023206 64 302 0.0 0.0 0.00 0.00 0.00 82 1009.0
20260902022703 64 302 0.0 0.0 0.00 0.00 0.00 82 1009.0
20260902022204 64 302 0.0 0.0 0.00 0.00 0.00 81 1009.0
20260902021705 64 302 0.0 0.0 0.00 0.00 0.00 82 1009.0
20260902021204 64 302 0.0 1.0 0.00 0.00 0.00 81 1009.0
20260902020704 64 302 0.0 1.0 0.00 0.00 0.00 82 1009.0
20260902015705 64 302 0.0 0.0 0.00 0.00 0.00 81 1009.2
20260902015205 64 302 0.0 1.0 0.00 0.00 0.00 81 1009.2
20260902014705 64 302 0.0 1.0 0.00 0.00 0.00 81 1009.2
20260902014204 64 302 2.0 6.0 0.00 0.00 0.00 81 1009.2
20260902013704 64 152 0.0 0.0 0.00 0.00 0.00 80 1009.2
20260902013205 64 152 0.0 0.0 0.00 0.00 0.00 80 1009.1
20260902011705 64 152 0.0 0.0 0.00 0.00 0.00 80 1009.2
20260902011205 64 152 0.0 0.0 0.00 0.00 0.00 80 1009.2
20260902010704 64 152 0.0 0.0 0.00 0.00 0.00 80 1009.1
20260902005704 64 152 0.0 0.0 0.00 0.00 0.00 80 1009.2
20260902004204 64 152 0.0 2.0 0.00 0.00 0.00 80 1009.1
20260902003704 64 152 0.0 2.0 0.00 0.00 0.00 80 1009.2
20260902003204 64 152 0.0 0.0 0.00 0.00 0.00 80 1009.2
20260902002704 64 152 0.0 0.0 0.00 0.00 0.00 80 1009.2
20260902002204 64 152 0.0 0.0 0.00 0.00 0.00 80 1009.1
20260902001705 64 42 0.0 0.0 0.00 0.00 0.00 80 1009.1
20260902001205 64 42 0.0 0.0 0.00 0.00 0.00 80 1009.2
20260902000204 64 329 0.0 0.0 0.00 0.00 0.00 79 1009.3
20260901235704 64 329 1.0 2.0 0.00 0.00 0.00 79 1009.3
20260901235204 64 350 0.0 0.0 0.00 0.00 0.00 79 1009.3
20260901234705 64 350 0.0 2.0 0.00 0.00 0.00 79 1009.3
20260901234205 64 352 0.0 2.0 0.00 0.00 0.00 79 1009.3
20260901233204 64 281 2.0 3.0 0.00 0.00 0.00 79 1009.3
20260901232705 64 309 2.0 3.0 0.00 0.00 0.00 79 1009.3
20260901232204 64 308 2.0 5.0 0.00 0.00 0.00 79 1009.3
20260901231705 64 316 3.0 3.0 0.00 0.00 0.00 79 1009.3
20260901231204 64 320 3.0 5.0 0.00 0.00 0.00 78 1009.3
20260901230704 64 314 3.0 5.0 0.00 0.00 0.00 79 1009.3
20260901230205 64 335 3.0 7.0 0.00 0.00 0.00 78 1009.3
20260901225704 64 298 3.0 5.0 0.00 0.00 0.00 79 1009.3
20260901225203 64 300 3.0 7.0 0.00 0.00 0.00 78 1009.3
20260901224704 64 320 3.0 7.0 0.00 0.00 0.00 78 1009.3
20260901224204 64 293 3.0 6.0 0.00 0.00 0.00 78 1009.3
20260901223705 64 300 3.0 6.0 0.00 0.00 0.00 78 1009.3
20260901223206 64 294 3.0 3.0 0.00 0.00 0.00 79 1009.3
20260901222704 64 314 3.0 8.0 0.00 0.00 0.00 79 1009.3
20260901222204 64 305 3.0 8.0 0.00 0.00 0.00 79 1009.4
20260901221705 64 311 6.0 9.0 0.00 0.00 0.00 79 1009.5
20260901220704 64 316 5.0 8.0 0.00 0.00 0.00 80 1009.5
20260901220206 64 294 5.0 7.0 0.00 0.00 0.00 80 1009.5
20260901215704 64 315 3.0 5.0 0.00 0.00 0.00 80 1009.5
20260901214705 64 321 2.0 3.0 0.00 0.00 0.00 80 1009.6
20260901214205 64 307 4.0 7.0 0.00 0.00 0.00 79 1009.7
20260901213704 64 297 3.0 6.0 0.00 0.00 0.00 79 1009.7
20260901213205 65 303 3.0 6.0 0.00 0.00 0.00 78 1009.7
20260901211705 65 310 3.0 6.0 0.00 0.00 0.00 78 1009.8
20260901211204 65 281 5.0 8.0 0.00 0.00 0.00 78 1009.9
20260901210704 65 279 4.0 8.0 0.00 0.00 0.00 77 1009.9
20260901210205 65 278 6.0 9.0 0.00 0.00 0.00 77 1009.9
20260901205704 65 287 6.0 10.0 0.00 0.00 0.00 77 1009.9
20260901205204 65 286 6.0 10.0 0.00 0.00 0.00 76 1009.9
20260901203704 66 281 6.0 9.0 0.00 0.00 0.00 74 1010.0
20260901202704 67 327 5.0 9.0 0.00 0.00 0.00 72 1009.9
20260901201704 68 323 4.0 7.0 0.00 0.00 0.00 72 1009.8
20260901201204 68 302 6.0 9.0 0.00 0.00 0.00 73 1009.8
20260901200204 68 295 5.0 10.0 0.00 0.00 0.00 72 1009.8
20260901195704 68 280 3.0 10.0 0.00 0.00 0.00 72 1009.6
20260901195204 69 331 5.0 8.0 0.00 0.00 0.00 71 1009.6
20260901194704 69 292 6.0 9.0 0.00 0.00 0.00 72 1009.7
20260901194204 68 349 5.0 7.0 0.00 0.00 0.00 73 1009.7
20260901193703 68 292 5.0 8.0 0.00 0.00 0.00 73 1009.7
20260901193205 68 211 3.0 6.0 0.00 0.00 0.00 75 1009.8
20260901192705 68 297 2.0 6.0 0.00 0.00 0.00 75 1009.8
20260901192205 67 284 5.0 7.0 0.00 0.00 0.00 76 1009.8
20260901191704 67 259 5.0 12.0 0.00 0.00 0.00 77 1010.0
20260901191204 67 296 4.0 7.0 0.00 0.00 0.00 77 1009.9
20260901190704 67 306 5.0 9.0 0.00 0.00 0.00 77 1009.9
20260901190205 66 37 3.0 6.0 0.00 0.00 0.00 78 1009.9
20260901185704 66 99 3.0 9.0 0.00 0.00 0.00 77 1009.9
20260901185205 65 241 3.0 6.0 0.00 0.00 0.00 80 1009.8
20260901184704 65 303 3.0 7.0 0.00 0.00 0.00 79 1009.9
20260901184204 65 305 3.0 7.0 0.00 0.00 0.00 80 1009.9
20260901183704 64 268 3.0 6.0 0.00 0.00 0.00 81 1009.9
20260901183205 64 336 5.0 8.0 0.00 0.00 0.00 82 1009.9
20260901182705 64 297 3.0 7.0 0.00 0.00 0.00 83 1009.9
20260901181205 62 305 6.0 9.0 0.00 0.00 0.00 86 1010.0
20260901180704 62 321 3.0 9.0 0.00 0.00 0.00 87 1010.1
20260901175705 62 306 5.0 8.0 0.00 0.00 0.00 87 1010.0
20260901175204 61 311 6.0 9.0 0.00 0.00 0.00 88 1010.0
20260901174705 61 273 3.0 9.0 0.00 0.00 0.00 90 1010.0
20260901174204 60 307 6.0 10.0 0.00 0.00 0.00 90 1010.0
20260901173204 60 296 5.0 9.0 0.00 0.00 0.00 90 1010.0
20260901172704 60 273 7.0 9.0 0.00 0.00 0.00 90 1010.0
20260901172205 60 266 5.0 9.0 0.00 0.00 0.00 91 1010.0
20260901171704 60 243 7.0 12.0 0.00 0.00 0.00 91 1010.0
20260901171205 59 272 5.0 10.0 0.00 0.00 0.00 91 1010.0
20260901170704 59 267 6.0 9.0 0.00 0.00 0.00 91 1010.0
20260901170205 59 263 6.0 10.0 0.00 0.00 0.00 92 1010.0
20260901165704 59 285 2.0 6.0 0.00 0.00 0.00 92 1010.0
20260901164705 59 303 5.0 7.0 0.00 0.00 0.00 92 1009.8
20260901164205 59 266 4.0 7.0 0.00 0.00 0.00 93 1009.8
20260901163704 58 279 3.0 6.0 0.00 0.00 0.00 93 1009.8
20260901163206 58 272 5.0 7.0 0.00 0.00 0.00 94 1009.9
20260901162705 58 270 3.0 9.0 0.00 0.00 0.00 94 1009.9
20260901162205 58 260 5.0 7.0 0.00 0.00 0.00 94 1009.9
20260901161704 58 256 5.0 8.0 0.00 0.00 0.00 95 1009.9
20260901161205 58 288 2.0 3.0 0.00 0.00 0.00 95 1009.9
20260901160703 57 281 2.0 7.0 0.00 0.00 0.00 95 1009.9
20260901160204 57 263 2.0 8.0 0.00 0.00 0.00 95 1009.9
20260901155704 57 266 3.0 7.0 0.00 0.00 0.00 95 1009.8
20260901155204 57 285 2.0 3.0 0.00 0.00 0.00 96 1009.9
20260901154705 56 289 3.0 3.0 0.00 0.00 0.00 96 1009.9
20260901154204 56 294 1.0 3.0 0.00 0.00 0.00 96 1009.9
20260901153205 55 278 1.0 3.0 0.00 0.00 0.00 96 1009.9
20260901152705 55 274 1.0 3.0 0.00 0.00 0.00 96 1009.9
20260901152204 55 277 1.0 3.0 0.00 0.00 0.00 96 1009.9
20260901151706 54 274 2.0 3.0 0.00 0.00 0.00 96 1009.9
20260901151203 54 274 1.0 3.0 0.00 0.00 0.00 96 1009.8
20260901150704 53 260 0.0 1.0 0.00 0.00 0.00 96 1009.7
20260901150206 53 260 1.0 3.0 0.00 0.00 0.00 96 1009.7
20260901145704 53 261 0.0 1.0 0.00 0.00 0.00 96 1009.6
20260901145204 53 261 0.0 0.0 0.00 0.00 0.00 96 1009.6
20260901144204 52 280 1.0 2.0 0.00 0.00 0.00 96 1009.5
20260901143704 52 266 1.0 2.0 0.00 0.00 0.00 96 1009.5
20260901143204 52 266 0.0 2.0 0.00 0.00 0.00 96 1009.3
20260901142703 51 257 0.0 2.0 0.00 0.00 0.00 97 1009.3
20260901142204 51 190 0.0 0.0 0.00 0.00 0.00 97 1009.3
20260901141204 50 190 0.0 0.0 0.00 0.00 0.00 96 1009.3
20260901140703 50 190 0.0 0.0 0.00 0.00 0.00 96 1009.3
20260901140206 50 190 0.0 0.0 0.00 0.00 0.00 96 1009.3
20260901134204 49 190 0.0 0.0 0.00 0.00 0.00 96 1009.1
20260901133705 49 190 0.0 0.0 0.00 0.00 0.00 96 1009.1
20260901133205 49 190 0.0 0.0 0.00 0.00 0.00 96 1009.1
20260901132704 49 190 0.0 0.0 0.00 0.00 0.00 96 1009.1
20260901132204 49 190 0.0 0.0 0.00 0.00 0.00 96 1009.1
20260901131706 49 190 0.0 0.0 0.00 0.00 0.00 96 1009.0
20260901131205 48 190 0.0 0.0 0.00 0.00 0.00 96 1009.0
20260901130205 48 190 0.0 0.0 0.00 0.00 0.00 95 1009.0
20260901124203 48 190 0.0 1.0 0.00 0.00 0.00 95 1009.1
20260901123704 48 190 0.0 2.0 0.00 0.00 0.00 94 1009.1
20260901122704 49 155 0.0 1.0 0.00 0.00 0.00 95 1009.1
20260901122204 50 175 0.0 1.0 0.00 0.00 0.00 96 1009.2
20260901121705 50 288 0.0 1.0 0.00 0.00 0.00 95 1009.2
20260901120705 50 288 0.0 1.0 0.00 0.00 0.00 96 1009.2
20260901115703 49 288 0.0 3.0 0.00 0.00 0.00 95 1009.1
20260901115205 49 271 0.0 3.0 0.00 0.00 0.00 95 1009.1
20260901114705 49 202 0.0 0.0 0.00 0.00 0.00 95 1009.0
20260901114204 49 202 0.0 0.0 0.00 0.00 0.00 95 1009.1
20260901113704 49 202 0.0 0.0 0.00 0.00 0.00 95 1009.0
20260901113206 49 202 0.0 0.0 0.00 0.00 0.00 95 1009.0
20260901112704 49 202 0.0 0.0 0.00 0.00 0.00 95 1009.1
20260901112204 49 202 0.0 0.0 0.00 0.00 0.00 95 1009.1
20260901111705 49 202 0.0 0.0 0.00 0.00 0.00 95 1009.1
20260901111204 48 202 0.0 0.0 0.00 0.00 0.00 94 1009.1